Back to catalog

STARLINK-36419

AliveCommunicationsSSO
NORAD 67584·PAYLOAD·🇺🇸 United States

Launched Jan 25, 2026 from Vandenberg Space Force Base

Loading…

Next Passes (next 24 hours)

TLE

FreshSource: CelesTrak SupGP

Epoch: Sep 14, 2026, 22:56 UTC

1 67584C 26016Z   26257.95604167  .00009453  00000+0  29351-3 0  2575
2 67584  97.2844 316.7408 0001069  93.1933 264.4518 15.33428571    19

Track STARLINK-36419 in real time with AllMySat

Download on the App Store